Time,TemperatureF,DewpointF,PressureIn,WindDirection,WindDirectionDegrees,WindSpeedMPH,WindSpeedGustMPH,Humidity,HourlyPrecipIn,Conditions,Clouds,dailyrainin,SoftwareType,DateUTC
2015-05-29 00:05:00,62.5,55.9,30.30,WSW,245,1.0,3.0,79,0.00,,,0.00,Wunderground v.1.15,2015-05-29 04:05:00,
2015-05-29 00:10:00,62.6,56.0,30.29,WSW,249,2.0,2.0,79,0.00,,,0.00,Wunderground v.1.15,2015-05-29 04:10:00,
2015-05-29 00:15:00,62.6,56.0,30.29,WNW,300,2.0,2.0,79,0.00,,,0.00,Wunderground v.1.15,2015-05-29 04:15:00,
2015-05-29 00:20:00,62.6,56.0,30.30,West,267,1.0,1.0,79,0.00,,,0.00,Wunderground v.1.15,2015-05-29 04:20:00,
2015-05-29 00:25:00,62.4,56.1,30.30,WSW,244,1.0,1.0,80,0.00,,,0.00,Wunderground v.1.15,2015-05-29 04:25:00,
2015-05-29 00:35:00,62.4,56.1,30.30,NE,49,2.0,5.0,80,0.00,,,0.00,Wunderground v.1.15,2015-05-29 04:35:00,
2015-05-29 00:40:00,62.5,56.2,30.30,NE,55,1.0,1.0,80,0.00,,,0.00,Wunderground v.1.15,2015-05-29 04:40:00,
2015-05-29 00:45:00,62.5,56.2,30.31,NE,55,0.0,1.0,80,0.00,,,0.00,Wunderground v.1.15,2015-05-29 04:45:00,
2015-05-29 00:50:00,62.2,56.3,30.31,NE,55,0.0,0.0,81,0.00,,,0.00,Wunderground v.1.15,2015-05-29 04:50:00,
2015-05-29 01:00:00,61.6,56.0,30.31,NE,56,1.0,1.0,82,0.00,,,0.00,Wunderground v.1.15,2015-05-29 05:00:00,
2015-05-29 01:10:00,62.0,56.4,30.30,ESE,109,1.0,1.0,82,0.00,,,0.00,Wunderground v.1.15,2015-05-29 05:10:00,
2015-05-29 01:15:00,62.1,56.2,30.30,ESE,109,0.0,1.0,81,0.00,,,0.00,Wunderground v.1.15,2015-05-29 05:15:00,
2015-05-29 01:20:00,62.4,56.5,30.30,ESE,109,0.0,0.0,81,0.00,,,0.00,Wunderground v.1.15,2015-05-29 05:20:00,
2015-05-29 01:25:00,62.7,56.4,30.31,ESE,108,0.0,0.0,80,0.00,,,0.00,Wunderground v.1.15,2015-05-29 05:25:00,
2015-05-29 01:30:00,62.7,56.4,30.31,ESE,108,1.0,1.0,80,0.00,,,0.00,Wunderground v.1.15,2015-05-29 05:30:00,
2015-05-29 01:35:00,62.5,56.2,30.31,ESE,108,0.0,1.0,80,0.00,,,0.00,Wunderground v.1.15,2015-05-29 05:35:00,
2015-05-29 01:45:00,61.6,56.0,30.31,ESE,108,0.0,0.0,82,0.00,,,0.00,Wunderground v.1.15,2015-05-29 05:45:00,
2015-05-29 01:50:00,61.4,56.2,30.32,ESE,108,0.0,1.0,83,0.00,,,0.00,Wunderground v.1.15,2015-05-29 05:50:00,
2015-05-29 02:00:00,61.3,56.1,30.31,ESE,115,2.0,2.0,83,0.00,,,0.00,Wunderground v.1.15,2015-05-29 06:00:00,
2015-05-29 02:05:00,61.2,56.0,30.31,ESE,115,1.0,2.0,83,0.00,,,0.00,Wunderground v.1.15,2015-05-29 06:05:00,
2015-05-29 02:10:00,61.1,56.2,30.32,ESE,115,0.0,0.0,84,0.00,,,0.00,Wunderground v.1.15,2015-05-29 06:10:00,
2015-05-29 02:20:00,61.3,56.4,30.32,ESE,115,0.0,3.0,84,0.00,,,0.00,Wunderground v.1.15,2015-05-29 06:20:00,
2015-05-29 02:25:00,61.4,56.5,30.32,ESE,116,1.0,3.0,84,0.00,,,0.00,Wunderground v.1.15,2015-05-29 06:25:00,
2015-05-29 02:30:00,61.4,56.5,30.32,ESE,116,2.0,2.0,84,0.00,,,0.00,Wunderground v.1.15,2015-05-29 06:30:00,
2015-05-29 02:35:00,61.6,56.4,30.31,ESE,116,1.0,2.0,83,0.00,,,0.00,Wunderground v.1.15,2015-05-29 06:35:00,
2015-05-29 02:40:00,61.8,56.6,30.31,ESE,116,1.0,1.0,83,0.00,,,0.00,Wunderground v.1.15,2015-05-29 06:40:00,
2015-05-29 02:50:00,61.8,56.6,30.31,ESE,116,0.0,0.0,83,0.00,,,0.00,Wunderground v.1.15,2015-05-29 06:50:00,
2015-05-29 03:00:00,61.4,56.2,30.31,ESE,116,1.0,1.0,83,0.00,,,0.00,Wunderground v.1.15,2015-05-29 07:00:00,
2015-05-29 03:05:00,61.2,56.3,30.32,ESE,116,1.0,1.0,84,0.00,,,0.00,Wunderground v.1.15,2015-05-29 07:05:00,
2015-05-29 03:10:00,61.0,56.1,30.32,ESE,116,0.0,2.0,84,0.00,,,0.00,Wunderground v.1.15,2015-05-29 07:10:00,
2015-05-29 03:15:00,61.0,56.1,30.31,ESE,116,1.0,2.0,84,0.00,,,0.00,Wunderground v.1.15,2015-05-29 07:15:00,
2015-05-29 03:20:00,61.1,55.9,30.32,ESE,116,0.0,0.0,83,0.00,,,0.00,Wunderground v.1.15,2015-05-29 07:20:00,
2015-05-29 03:25:00,61.3,55.8,30.32,ESE,116,0.0,0.0,82,0.00,,,0.00,Wunderground v.1.15,2015-05-29 07:25:00,
2015-05-29 03:30:00,61.6,56.0,30.32,ESE,116,1.0,1.0,82,0.00,,,0.00,Wunderground v.1.15,2015-05-29 07:30:00,
2015-05-29 03:35:00,61.8,56.2,30.32,ESE,116,0.0,1.0,82,0.00,,,0.00,Wunderground v.1.15,2015-05-29 07:35:00,
2015-05-29 03:40:00,61.7,56.1,30.33,ESE,116,0.0,1.0,82,0.00,,,0.00,Wunderground v.1.15,2015-05-29 07:40:00,
2015-05-29 03:45:00,61.7,56.1,30.33,ESE,116,0.0,1.0,82,0.00,,,0.00,Wunderground v.1.15,2015-05-29 07:45:00,
2015-05-29 03:55:00,61.4,56.2,30.33,ESE,116,0.0,0.0,83,0.00,,,0.00,Wunderground v.1.15,2015-05-29 07:55:00,
2015-05-29 04:05:00,61.1,56.2,30.33,ESE,116,1.0,1.0,84,0.00,,,0.00,Wunderground v.1.15,2015-05-29 08:05:00,
2015-05-29 04:10:00,61.1,56.2,30.33,ESE,116,1.0,1.0,84,0.00,,,0.00,Wunderground v.1.15,2015-05-29 08:10:00,
2015-05-29 04:15:00,61.0,56.1,30.33,ESE,116,0.0,2.0,84,0.00,,,0.00,Wunderground v.1.15,2015-05-29 08:15:00,
2015-05-29 04:20:00,61.1,56.2,30.33,ESE,116,0.0,1.0,84,0.00,,,0.00,Wunderground v.1.15,2015-05-29 08:20:00,
2015-05-29 04:25:00,60.9,56.0,30.34,ESE,116,1.0,1.0,84,0.00,,,0.00,Wunderground v.1.15,2015-05-29 08:25:00,
2015-05-29 04:35:00,60.4,55.9,30.34,ESE,116,0.0,0.0,85,0.00,,,0.00,Wunderground v.1.15,2015-05-29 08:35:00,
2015-05-29 04:40:00,60.3,56.1,30.34,ESE,116,0.0,0.0,86,0.00,,,0.00,Wunderground v.1.15,2015-05-29 08:40:00,
2015-05-29 04:45:00,60.3,56.1,30.34,ESE,116,0.0,0.0,86,0.00,,,0.00,Wunderground v.1.15,2015-05-29 08:45:00,
2015-05-29 04:50:00,60.3,56.1,30.34,ESE,116,0.0,0.0,86,0.00,,,0.00,Wunderground v.1.15,2015-05-29 08:50:00,
2015-05-29 05:00:00,60.2,56.0,30.35,ESE,116,0.0,0.0,86,0.00,,,0.00,Wunderground v.1.15,2015-05-29 09:00:00,
2015-05-29 05:10:00,59.9,55.7,30.36,ESE,116,0.0,0.0,86,0.00,,,0.00,Wunderground v.1.15,2015-05-29 09:10:00,
2015-05-29 05:15:00,59.8,55.9,30.36,ESE,116,0.0,0.0,87,0.00,,,0.00,Wunderground v.1.15,2015-05-29 09:15:00,
2015-05-29 05:20:00,59.5,55.6,30.36,ESE,116,0.0,2.0,87,0.00,,,0.00,Wunderground v.1.15,2015-05-29 09:20:00,
2015-05-29 05:25:00,59.4,55.5,30.36,ESE,116,0.0,2.0,87,0.00,,,0.00,Wunderground v.1.15,2015-05-29 09:25:00,
2015-05-29 05:30:00,59.3,55.7,30.36,ESE,116,0.0,0.0,88,0.00,,,0.00,Wunderground v.1.15,2015-05-29 09:30:00,
2015-05-29 05:40:00,59.4,55.5,30.37,ESE,116,1.0,1.0,87,0.00,,,0.00,Wunderground v.1.15,2015-05-29 09:40:00,
2015-05-29 05:45:00,59.6,55.4,30.36,ESE,116,1.0,1.0,86,0.00,,,0.00,Wunderground v.1.15,2015-05-29 09:45:00,
2015-05-29 05:50:00,59.7,55.5,30.37,ESE,115,1.0,3.0,86,0.00,,,0.00,Wunderground v.1.15,2015-05-29 09:50:00,
2015-05-29 05:55:00,59.9,55.4,30.36,ESE,115,1.0,3.0,85,0.00,,,0.00,Wunderground v.1.15,2015-05-29 09:55:00,
2015-05-29 06:05:00,60.2,55.7,30.37,ESE,115,0.0,1.0,85,0.00,,,0.00,Wunderground v.1.15,2015-05-29 10:05:00,
2015-05-29 06:15:00,61.1,55.9,30.37,ESE,121,1.0,2.0,83,0.00,,,0.00,Wunderground v.1.15,2015-05-29 10:15:00,
2015-05-29 06:20:00,61.4,55.9,30.37,ENE,76,1.0,2.0,82,0.00,,,0.00,Wunderground v.1.15,2015-05-29 10:20:00,
2015-05-29 06:25:00,61.7,56.1,30.37,East,98,2.0,2.0,82,0.00,,,0.00,Wunderground v.1.15,2015-05-29 10:25:00,
2015-05-29 06:30:00,62.0,56.1,30.38,ESE,109,1.0,4.0,81,0.00,,,0.00,Wunderground v.1.15,2015-05-29 10:30:00,
2015-05-29 06:35:00,62.2,56.3,30.38,SE,126,1.0,4.0,81,0.00,,,0.00,Wunderground v.1.15,2015-05-29 10:35:00,
2015-05-29 06:40:00,62.3,55.7,30.38,ENE,67,2.0,2.0,79,0.00,,,0.00,Wunderground v.1.15,2015-05-29 10:40:00,
2015-05-29 06:50:00,62.8,56.2,30.38,East,90,1.0,1.0,79,0.00,,,0.00,Wunderground v.1.15,2015-05-29 10:50:00,
2015-05-29 06:55:00,63.1,56.1,30.38,East,90,1.0,1.0,78,0.00,,,0.00,Wunderground v.1.15,2015-05-29 10:55:00,
2015-05-29 07:00:00,63.1,55.8,30.38,NE,46,1.0,1.0,77,0.00,,,0.00,Wunderground v.1.15,2015-05-29 11:00:00,
2015-05-29 07:10:00,63.1,55.8,30.39,ENE,75,1.0,3.0,77,0.00,,,0.00,Wunderground v.1.15,2015-05-29 11:10:00,
2015-05-29 07:15:00,63.0,55.3,30.39,ENE,74,2.0,3.0,76,0.00,,,0.00,Wunderground v.1.15,2015-05-29 11:15:00,
2015-05-29 07:20:00,62.7,55.4,30.39,NNE,33,2.0,2.0,77,0.00,,,0.00,Wunderground v.1.15,2015-05-29 11:20:00,
2015-05-29 07:25:00,62.7,55.7,30.39,NE,48,2.0,4.0,78,0.00,,,0.00,Wunderground v.1.15,2015-05-29 11:25:00,
2015-05-29 07:30:00,62.9,55.9,30.39,NE,50,2.0,2.0,78,0.00,,,0.00,Wunderground v.1.15,2015-05-29 11:30:00,
2015-05-29 07:35:00,63.1,56.1,30.39,NE,56,2.0,3.0,78,0.00,,,0.00,Wunderground v.1.15,2015-05-29 11:35:00,
2015-05-29 07:40:00,63.3,56.0,30.39,ENE,59,2.0,2.0,77,0.00,,,0.00,Wunderground v.1.15,2015-05-29 11:40:00,
2015-05-29 07:45:00,63.6,55.9,30.39,NE,40,2.0,3.0,76,0.00,,,0.00,Wunderground v.1.15,2015-05-29 11:45:00,
2015-05-29 07:50:00,63.6,55.9,30.40,NE,44,3.0,3.0,76,0.00,,,0.00,Wunderground v.1.15,2015-05-29 11:50:00,
2015-05-29 07:55:00,63.7,55.6,30.40,NE,38,3.0,4.0,75,0.00,,,0.00,Wunderground v.1.15,2015-05-29 11:55:00,
2015-05-29 08:00:00,63.8,55.7,30.40,NNE,27,4.0,4.0,75,0.00,,,0.00,Wunderground v.1.15,2015-05-29 12:00:00,
2015-05-29 08:10:00,64.6,56.1,30.40,East,90,2.0,2.0,74,0.00,,,0.00,Wunderground v.1.15,2015-05-29 12:10:00,
2015-05-29 08:15:00,65.2,57.1,30.40,ENE,78,2.0,2.0,75,0.00,,,0.00,Wunderground v.1.15,2015-05-29 12:15:00,
2015-05-29 08:20:00,65.2,56.7,30.40,NNE,24,2.0,3.0,74,0.00,,,0.00,Wunderground v.1.15,2015-05-29 12:20:00,
2015-05-29 08:30:00,65.3,56.8,30.40,NNW,332,2.0,3.0,74,0.00,,,0.00,Wunderground v.1.15,2015-05-29 12:30:00,
2015-05-29 08:35:00,65.4,56.5,30.40,NNE,33,2.0,3.0,73,0.00,,,0.00,Wunderground v.1.15,2015-05-29 12:35:00,
2015-05-29 08:40:00,65.6,56.3,30.41,NE,44,2.0,2.0,72,0.00,,,0.00,Wunderground v.1.15,2015-05-29 12:40:00,
2015-05-29 08:45:00,65.7,56.0,30.41,NNE,19,2.0,5.0,71,0.00,,,0.00,Wunderground v.1.15,2015-05-29 12:45:00,
2015-05-29 08:50:00,65.8,56.1,30.41,NNE,28,3.0,4.0,71,0.00,,,0.00,Wunderground v.1.15,2015-05-29 12:50:00,
2015-05-29 08:55:00,66.1,56.4,30.41,NNE,28,4.0,4.0,71,0.00,,,0.00,Wunderground v.1.15,2015-05-29 12:55:00,
2015-05-29 09:05:00,66.8,57.1,30.41,NE,36,3.0,3.0,71,0.00,,,0.00,Wunderground v.1.15,2015-05-29 13:05:00,
2015-05-29 09:15:00,67.1,56.6,30.41,ENE,65,2.0,4.0,69,0.00,,,0.00,Wunderground v.1.15,2015-05-29 13:15:00,
2015-05-29 09:20:00,67.4,57.3,30.41,NNE,15,2.0,5.0,70,0.00,,,0.00,Wunderground v.1.15,2015-05-29 13:20:00,
2015-05-29 09:25:00,67.6,56.2,30.41,NE,35,3.0,5.0,67,0.00,,,0.00,Wunderground v.1.15,2015-05-29 13:25:00,
2015-05-29 09:30:00,67.7,56.3,30.40,ENE,75,3.0,3.0,67,0.00,,,0.00,Wunderground v.1.15,2015-05-29 13:30:00,
2015-05-29 09:40:00,68.0,55.8,30.41,ENE,59,3.0,4.0,65,0.00,,,0.00,Wunderground v.1.15,2015-05-29 13:40:00,
2015-05-29 09:45:00,68.3,56.1,30.41,SE,134,3.0,4.0,65,0.00,,,0.00,Wunderground v.1.15,2015-05-29 13:45:00,
2015-05-29 09:50:00,69.1,56.8,30.41,East,87,2.0,4.0,65,0.00,,,0.00,Wunderground v.1.15,2015-05-29 13:50:00,
2015-05-29 09:55:00,69.4,56.7,30.41,ESE,121,2.0,6.0,64,0.00,,,0.00,Wunderground v.1.15,2015-05-29 13:55:00,
2015-05-29 10:00:00,69.2,56.5,30.41,East,83,3.0,3.0,64,0.00,,,0.00,Wunderground v.1.15,2015-05-29 14:00:00,
2015-05-29 10:10:00,69.5,56.3,30.41,SE,126,2.0,3.0,63,0.00,,,0.00,Wunderground v.1.15,2015-05-29 14:10:00,
2015-05-29 10:20:00,69.4,56.3,30.40,NW,320,2.0,2.0,63,0.00,,,0.00,Wunderground v.1.15,2015-05-29 14:20:00,
2015-05-29 10:25:00,69.7,57.0,30.40,East,100,2.0,2.0,64,0.00,,,0.00,Wunderground v.1.15,2015-05-29 14:25:00,
2015-05-29 10:30:00,70.1,56.9,30.40,East,98,1.0,1.0,63,0.00,,,0.00,Wunderground v.1.15,2015-05-29 14:30:00,
2015-05-29 10:35:00,70.3,56.7,30.40,East,94,2.0,2.0,62,0.00,,,0.00,Wunderground v.1.15,2015-05-29 14:35:00,
2015-05-29 10:45:00,70.3,57.1,30.39,East,90,2.0,4.0,63,0.00,,,0.00,Wunderground v.1.15,2015-05-29 14:45:00,
2015-05-29 10:50:00,70.6,56.9,30.39,ENE,78,2.0,2.0,62,0.00,,,0.00,Wunderground v.1.15,2015-05-29 14:50:00,
2015-05-29 10:55:00,70.4,57.2,30.39,ESE,113,2.0,2.0,63,0.00,,,0.00,Wunderground v.1.15,2015-05-29 14:55:00,
2015-05-29 11:00:00,70.4,57.2,30.39,ENE,67,3.0,3.0,63,0.00,,,0.00,Wunderground v.1.15,2015-05-29 15:00:00,
2015-05-29 11:05:00,70.5,57.3,30.39,ENE,66,2.0,3.0,63,0.00,,,0.00,Wunderground v.1.15,2015-05-29 15:05:00,
2015-05-29 11:15:00,71.2,57.5,30.39,ESE,105,2.0,2.0,62,0.00,,,0.00,Wunderground v.1.15,2015-05-29 15:15:00,
2015-05-29 11:20:00,71.4,57.7,30.39,ENE,67,2.0,3.0,62,0.00,,,0.00,Wunderground v.1.15,2015-05-29 15:20:00,
2015-05-29 11:30:00,71.2,58.0,30.39,East,90,2.0,2.0,63,0.00,,,0.00,Wunderground v.1.15,2015-05-29 15:30:00,
2015-05-29 11:35:00,71.4,58.6,30.39,ESE,121,1.0,2.0,64,0.00,,,0.00,Wunderground v.1.15,2015-05-29 15:35:00,
2015-05-29 11:40:00,71.9,57.7,30.39,ESE,121,0.0,0.0,61,0.00,,,0.00,Wunderground v.1.15,2015-05-29 15:40:00,
2015-05-29 11:45:00,72.3,58.5,30.39,SE,132,0.0,0.0,62,0.00,,,0.00,Wunderground v.1.15,2015-05-29 15:45:00,
2015-05-29 11:55:00,71.4,57.2,30.38,NNW,344,2.0,3.0,61,0.00,,,0.00,Wunderground v.1.15,2015-05-29 15:55:00,
2015-05-29 12:00:00,71.5,59.1,30.38,ESE,121,2.0,5.0,65,0.00,,,0.00,Wunderground v.1.15,2015-05-29 16:00:00,
2015-05-29 12:05:00,71.9,58.2,30.38,SSE,150,2.0,5.0,62,0.00,,,0.00,Wunderground v.1.15,2015-05-29 16:05:00,
2015-05-29 12:10:00,72.6,58.8,30.38,West,260,2.0,2.0,62,0.00,,,0.00,Wunderground v.1.15,2015-05-29 16:10:00,
2015-05-29 12:20:00,74.6,59.3,30.38,West,279,2.0,4.0,59,0.00,,,0.00,Wunderground v.1.15,2015-05-29 16:20:00,
2015-05-29 12:30:00,73.8,59.5,30.38,SSE,156,2.0,2.0,61,0.00,,,0.00,Wunderground v.1.15,2015-05-29 16:30:00,
2015-05-29 12:35:00,73.5,58.3,30.37,SSE,152,2.0,2.0,59,0.00,,,0.00,Wunderground v.1.15,2015-05-29 16:35:00,
2015-05-29 12:40:00,73.1,59.8,30.38,SSE,164,1.0,1.0,63,0.00,,,0.00,Wunderground v.1.15,2015-05-29 16:40:00,
2015-05-29 12:45:00,72.6,58.8,30.37,WNW,287,1.0,3.0,62,0.00,,,0.00,Wunderground v.1.15,2015-05-29 16:45:00,
2015-05-29 12:50:00,72.4,58.6,30.38,West,279,3.0,4.0,62,0.00,,,0.00,Wunderground v.1.15,2015-05-29 16:50:00,
2015-05-29 13:00:00,72.7,58.9,30.37,WNW,296,3.0,4.0,62,0.00,,,0.00,Wunderground v.1.15,2015-05-29 17:00:00,
2015-05-29 13:05:00,73.0,58.8,30.37,WNW,292,3.0,4.0,61,0.00,,,0.00,Wunderground v.1.15,2015-05-29 17:05:00,
2015-05-29 13:10:00,73.0,58.3,30.37,WSW,254,3.0,3.0,60,0.00,,,0.00,Wunderground v.1.15,2015-05-29 17:10:00,
2015-05-29 13:15:00,73.1,58.4,30.37,SE,134,2.0,4.0,60,0.00,,,0.00,Wunderground v.1.15,2015-05-29 17:15:00,
2015-05-29 13:20:00,73.7,58.5,30.37,West,262,2.0,2.0,59,0.00,,,0.00,Wunderground v.1.15,2015-05-29 17:20:00,
2015-05-29 13:30:00,74.3,58.1,30.36,WNW,283,3.0,4.0,57,0.00,,,0.00,Wunderground v.1.15,2015-05-29 17:30:00,
2015-05-29 13:40:00,74.7,58.5,30.36,SW,228,4.0,4.0,57,0.00,,,0.00,Wunderground v.1.15,2015-05-29 17:40:00,
2015-05-29 13:45:00,75.6,58.8,30.37,SSW,197,3.0,4.0,56,0.00,,,0.00,Wunderground v.1.15,2015-05-29 17:45:00,
2015-05-29 13:50:00,75.2,58.9,30.37,WNW,284,3.0,3.0,57,0.00,,,0.00,Wunderground v.1.15,2015-05-29 17:50:00,
2015-05-29 13:55:00,75.5,58.2,30.36,WSW,238,2.0,3.0,55,0.00,,,0.00,Wunderground v.1.15,2015-05-29 17:55:00,
2015-05-29 14:00:00,75.4,58.1,30.36,SW,233,2.0,3.0,55,0.00,,,0.00,Wunderground v.1.15,2015-05-29 18:00:00,
2015-05-29 14:10:00,75.8,58.5,30.36,SW,226,2.0,2.0,55,0.00,,,0.00,Wunderground v.1.15,2015-05-29 18:10:00,
2015-05-29 14:15:00,75.8,58.0,30.36,WSW,248,1.0,3.0,54,0.00,,,0.00,Wunderground v.1.15,2015-05-29 18:15:00,
2015-05-29 14:20:00,75.5,58.7,30.36,SW,232,2.0,2.0,56,0.00,,,0.00,Wunderground v.1.15,2015-05-29 18:20:00,
2015-05-29 14:25:00,75.3,58.5,30.36,SW,216,1.0,2.0,56,0.00,,,0.00,Wunderground v.1.15,2015-05-29 18:25:00,
2015-05-29 14:35:00,75.3,58.5,30.35,SSE,168,1.0,2.0,56,0.00,,,0.00,Wunderground v.1.15,2015-05-29 18:35:00,
2015-05-29 14:45:00,76.8,58.9,30.35,West,273,2.0,4.0,54,0.00,,,0.00,Wunderground v.1.15,2015-05-29 18:45:00,
2015-05-29 14:50:00,77.0,60.1,30.35,SSE,161,2.0,3.0,56,0.00,,,0.00,Wunderground v.1.15,2015-05-29 18:50:00,
2015-05-29 14:55:00,77.3,59.4,30.35,SSE,153,2.0,3.0,54,0.00,,,0.00,Wunderground v.1.15,2015-05-29 18:55:00,
2015-05-29 15:00:00,77.9,60.4,30.35,ESE,114,3.0,4.0,55,0.00,,,0.00,Wunderground v.1.15,2015-05-29 19:00:00,
2015-05-29 15:05:00,78.2,59.7,30.35,SSE,166,3.0,4.0,53,0.00,,,0.00,Wunderground v.1.15,2015-05-29 19:05:00,
2015-05-29 15:10:00,78.6,59.5,30.35,West,280,2.0,2.0,52,0.00,,,0.00,Wunderground v.1.15,2015-05-29 19:10:00,
2015-05-29 15:15:00,78.0,58.4,30.35,WSW,253,3.0,5.0,51,0.00,,,0.00,Wunderground v.1.15,2015-05-29 19:15:00,
2015-05-29 15:20:00,76.7,58.3,30.35,WSW,257,4.0,4.0,53,0.00,,,0.00,Wunderground v.1.15,2015-05-29 19:20:00,
2015-05-29 15:25:00,77.3,59.4,30.35,West,265,3.0,4.0,54,0.00,,,0.00,Wunderground v.1.15,2015-05-29 19:25:00,
2015-05-29 15:35:00,77.6,58.6,30.35,SSW,209,3.0,3.0,52,0.00,,,0.00,Wunderground v.1.15,2015-05-29 19:35:00,
2015-05-29 15:40:00,78.0,58.4,30.35,SSE,159,3.0,3.0,51,0.00,,,0.00,Wunderground v.1.15,2015-05-29 19:40:00,
2015-05-29 15:45:00,78.3,58.1,30.35,South,184,2.0,3.0,50,0.00,,,0.00,Wunderground v.1.15,2015-05-29 19:45:00,
2015-05-29 15:50:00,77.8,58.2,30.35,SW,229,3.0,6.0,51,0.00,,,0.00,Wunderground v.1.15,2015-05-29 19:50:00,
2015-05-29 15:55:00,77.0,57.5,30.35,West,273,4.0,6.0,51,0.00,,,0.00,Wunderground v.1.15,2015-05-29 19:55:00,
2015-05-29 16:00:00,77.5,57.9,30.34,SSW,207,3.0,5.0,51,0.00,,,0.00,Wunderground v.1.15,2015-05-29 20:00:00,
2015-05-29 16:05:00,76.9,57.9,30.35,SW,221,3.0,5.0,52,0.00,,,0.00,Wunderground v.1.15,2015-05-29 20:05:00,
2015-05-29 16:10:00,77.2,58.7,30.34,SW,219,2.0,2.0,53,0.00,,,0.00,Wunderground v.1.15,2015-05-29 20:10:00,
2015-05-29 16:15:00,78.1,57.9,30.34,WNW,286,2.0,4.0,50,0.00,,,0.00,Wunderground v.1.15,2015-05-29 20:15:00,
2015-05-29 16:25:00,77.4,57.3,30.34,WSW,248,4.0,12.0,50,0.00,,,0.00,Wunderground v.1.15,2015-05-29 20:25:00,
2015-05-29 16:30:00,77.4,58.4,30.34,SW,232,5.0,5.0,52,0.00,,,0.00,Wunderground v.1.15,2015-05-29 20:30:00,
2015-05-29 16:40:00,78.2,58.6,30.34,SW,227,3.0,3.0,51,0.00,,,0.00,Wunderground v.1.15,2015-05-29 20:40:00,
2015-05-29 16:45:00,78.2,57.5,30.34,WSW,238,3.0,3.0,49,0.00,,,0.00,Wunderground v.1.15,2015-05-29 20:45:00,
2015-05-29 16:50:00,78.3,58.1,30.34,SW,234,3.0,3.0,50,0.00,,,0.00,Wunderground v.1.15,2015-05-29 20:50:00,
2015-05-29 17:00:00,78.9,59.2,30.33,WSW,238,2.0,4.0,51,0.00,,,0.00,Wunderground v.1.15,2015-05-29 21:00:00,
2015-05-29 17:05:00,78.6,58.4,30.33,SSW,209,3.0,4.0,50,0.00,,,0.00,Wunderground v.1.15,2015-05-29 21:05:00,
2015-05-29 17:10:00,78.5,57.2,30.33,WSW,257,3.0,3.0,48,0.00,,,0.00,Wunderground v.1.15,2015-05-29 21:10:00,
2015-05-29 17:15:00,78.6,57.8,30.32,SSW,211,2.0,3.0,49,0.00,,,0.00,Wunderground v.1.15,2015-05-29 21:15:00,
2015-05-29 17:20:00,78.1,59.6,30.32,SW,220,2.0,5.0,53,0.00,,,0.00,Wunderground v.1.15,2015-05-29 21:20:00,
2015-05-29 17:30:00,78.5,60.5,30.32,SSE,163,2.0,2.0,54,0.00,,,0.00,Wunderground v.1.15,2015-05-29 21:30:00,
2015-05-29 17:35:00,77.9,60.9,30.32,West,268,2.0,2.0,56,0.00,,,0.00,Wunderground v.1.15,2015-05-29 21:35:00,
2015-05-29 17:40:00,77.4,61.5,30.32,South,175,3.0,3.0,58,0.00,,,0.00,Wunderground v.1.15,2015-05-29 21:40:00,
2015-05-29 17:45:00,77.2,61.8,30.32,SW,231,2.0,3.0,59,0.00,,,0.00,Wunderground v.1.15,2015-05-29 21:45:00,
2015-05-29 17:55:00,76.8,61.9,30.31,West,279,2.0,3.0,60,0.00,,,0.00,Wunderground v.1.15,2015-05-29 21:55:00,
2015-05-29 18:00:00,77.0,62.5,30.31,SSW,205,1.0,1.0,61,0.00,,,0.00,Wunderground v.1.15,2015-05-29 22:00:00,
2015-05-29 18:10:00,76.1,62.1,30.31,SW,231,2.0,2.0,62,0.00,,,0.00,Wunderground v.1.15,2015-05-29 22:10:00,
2015-05-29 18:15:00,75.7,62.2,30.31,SSW,192,2.0,6.0,63,0.00,,,0.00,Wunderground v.1.15,2015-05-29 22:15:00,
2015-05-29 18:20:00,75.1,62.1,30.31,South,185,2.0,4.0,64,0.00,,,0.00,Wunderground v.1.15,2015-05-29 22:20:00,
2015-05-29 18:25:00,74.8,61.8,30.31,South,183,2.0,4.0,64,0.00,,,0.00,Wunderground v.1.15,2015-05-29 22:25:00,
2015-05-29 18:30:00,74.6,62.1,30.31,SSE,153,2.0,2.0,65,0.00,,,0.00,Wunderground v.1.15,2015-05-29 22:30:00,
2015-05-29 18:40:00,73.9,62.2,30.31,SW,217,2.0,2.0,67,0.00,,,0.00,Wunderground v.1.15,2015-05-29 22:40:00,
2015-05-29 18:45:00,73.4,61.8,30.31,SSE,159,2.0,2.0,67,0.00,,,0.00,Wunderground v.1.15,2015-05-29 22:45:00,
2015-05-29 18:50:00,73.0,61.8,30.31,South,179,1.0,1.0,68,0.00,,,0.00,Wunderground v.1.15,2015-05-29 22:50:00,
2015-05-29 18:55:00,72.4,61.2,30.31,SSE,165,2.0,2.0,68,0.00,,,0.00,Wunderground v.1.15,2015-05-29 22:55:00,
2015-05-29 19:00:00,71.5,60.8,30.31,South,180,2.0,3.0,69,0.00,,,0.00,Wunderground v.1.15,2015-05-29 23:00:00,
2015-05-29 19:10:00,70.2,60.4,30.31,SE,130,3.0,3.0,71,0.00,,,0.00,Wunderground v.1.15,2015-05-29 23:10:00,
2015-05-29 19:15:00,69.8,60.4,30.31,South,190,3.0,3.0,72,0.00,,,0.00,Wunderground v.1.15,2015-05-29 23:15:00,
2015-05-29 19:25:00,69.1,60.1,30.31,SW,236,3.0,3.0,73,0.00,,,0.00,Wunderground v.1.15,2015-05-29 23:25:00,
2015-05-29 19:30:00,68.8,59.8,30.31,SSE,155,3.0,3.0,73,0.00,,,0.00,Wunderground v.1.15,2015-05-29 23:30:00,
2015-05-29 19:35:00,68.5,59.9,30.31,SSW,192,3.0,3.0,74,0.00,,,0.00,Wunderground v.1.15,2015-05-29 23:35:00,
2015-05-29 19:40:00,68.3,59.7,30.31,WSW,241,3.0,3.0,74,0.00,,,0.00,Wunderground v.1.15,2015-05-29 23:40:00,
2015-05-29 19:45:00,68.0,59.4,30.31,SSW,208,3.0,3.0,74,0.00,,,0.00,Wunderground v.1.15,2015-05-29 23:45:00,
2015-05-29 19:50:00,67.8,59.6,30.31,SSW,200,3.0,4.0,75,0.00,,,0.00,Wunderground v.1.15,2015-05-29 23:50:00,
2015-05-29 19:55:00,67.6,59.4,30.31,SSW,192,3.0,4.0,75,0.00,,,0.00,Wunderground v.1.15,2015-05-29 23:55:00,
2015-05-29 20:00:00,67.4,59.6,30.31,SW,221,3.0,3.0,76,0.00,,,0.00,Wunderground v.1.15,2015-05-30 00:00:00,
2015-05-29 20:05:00,67.2,59.4,30.31,SW,229,4.0,4.0,76,0.00,,,0.00,Wunderground v.1.15,2015-05-30 00:05:00,
2015-05-29 20:10:00,67.1,58.9,30.30,West,261,4.0,4.0,75,0.00,,,0.00,Wunderground v.1.15,2015-05-30 00:10:00,
2015-05-29 20:20:00,66.8,59.0,30.30,WSW,238,4.0,4.0,76,0.00,,,0.00,Wunderground v.1.15,2015-05-30 00:20:00,
2015-05-29 20:25:00,66.6,58.8,30.30,SSW,205,4.0,4.0,76,0.00,,,0.00,Wunderground v.1.15,2015-05-30 00:25:00,
2015-05-29 20:30:00,66.4,59.0,30.30,SSE,155,4.0,7.0,77,0.00,,,0.00,Wunderground v.1.15,2015-05-30 00:30:00,
2015-05-29 20:35:00,66.3,58.9,30.30,SSW,197,4.0,7.0,77,0.00,,,0.00,Wunderground v.1.15,2015-05-30 00:35:00,
2015-05-29 20:45:00,66.2,58.4,30.31,SW,216,3.0,4.0,76,0.00,,,0.00,Wunderground v.1.15,2015-05-30 00:45:00,
2015-05-29 20:55:00,66.2,58.0,30.31,SW,228,3.0,3.0,75,0.00,,,0.00,Wunderground v.1.15,2015-05-30 00:55:00,
2015-05-29 21:00:00,66.3,58.1,30.31,South,189,3.0,3.0,75,0.00,,,0.00,Wunderground v.1.15,2015-05-30 01:00:00,
2015-05-29 21:05:00,66.4,58.2,30.31,West,280,3.0,3.0,75,0.00,,,0.00,Wunderground v.1.15,2015-05-30 01:05:00,
2015-05-29 21:10:00,66.2,58.0,30.32,SW,221,2.0,3.0,75,0.00,,,0.00,Wunderground v.1.15,2015-05-30 01:10:00,
2015-05-29 21:15:00,66.1,57.9,30.32,SSW,193,2.0,3.0,75,0.00,,,0.00,Wunderground v.1.15,2015-05-30 01:15:00,
2015-05-29 21:25:00,65.7,58.3,30.32,SSW,205,2.0,4.0,77,0.00,,,0.00,Wunderground v.1.15,2015-05-30 01:25:00,
2015-05-29 21:30:00,65.6,58.6,30.32,SSW,203,2.0,2.0,78,0.00,,,0.00,Wunderground v.1.15,2015-05-30 01:30:00,
2015-05-29 21:35:00,65.4,58.4,30.32,SW,231,2.0,2.0,78,0.00,,,0.00,Wunderground v.1.15,2015-05-30 01:35:00,
2015-05-29 21:40:00,65.4,58.4,30.32,West,279,2.0,2.0,78,0.00,,,0.00,Wunderground v.1.15,2015-05-30 01:40:00,
2015-05-29 21:45:00,65.3,58.6,30.32,SSW,202,1.0,2.0,79,0.00,,,0.00,Wunderground v.1.15,2015-05-30 01:45:00,
2015-05-29 21:55:00,64.9,58.2,30.32,WSW,244,1.0,2.0,79,0.00,,,0.00,Wunderground v.1.15,2015-05-30 01:55:00,
2015-05-29 22:05:00,65.0,58.3,30.32,SW,221,2.0,2.0,79,0.00,,,0.00,Wunderground v.1.15,2015-05-30 02:05:00,
2015-05-29 22:10:00,64.9,58.2,30.32,WSW,246,2.0,2.0,79,0.00,,,0.00,Wunderground v.1.15,2015-05-30 02:10:00,
2015-05-29 22:15:00,64.8,58.1,30.32,WSW,252,2.0,2.0,79,0.00,,,0.00,Wunderground v.1.15,2015-05-30 02:15:00,
2015-05-29 22:20:00,64.7,58.0,30.32,SW,232,2.0,2.0,79,0.00,,,0.00,Wunderground v.1.15,2015-05-30 02:20:00,
2015-05-29 22:25:00,64.6,57.9,30.32,West,263,2.0,2.0,79,0.00,,,0.00,Wunderground v.1.15,2015-05-30 02:25:00,